,,,PA_Meas_PMT16A,,PR_Meas_QMR101_102,,RH_Meas_QMH101,,SR_Meas_QMS101,,TA_Meas_QMH101,,GenWind,,GenWind,
date,time,status,PA,status,PR,status,RH,status,SR,status,TA,status,DirAvg,status,SpdAvg,
2008-03-29, 00:00:04,VALID,1005.27,VALID,0,VALID,94.5142,VALID,0,VALID,23.3744,VALID,351,VALID,0,
2008-03-29, 00:01:04,VALID,1005.26,VALID,0,VALID,94.5142,VALID,0,VALID,23.3532,VALID,351,VALID,0,
2008-03-29, 00:02:04,VALID,1005.27,VALID,0,VALID,94.6134,VALID,0,VALID,23.3727,VALID,321,VALID,0.429297,
2008-03-29, 00:03:04,VALID,1005.26,VALID,0,VALID,94.5371,VALID,0,VALID,23.4134,VALID,321,VALID,0.220313,
2008-03-29, 00:04:04,VALID,1005.26,VALID,0,VALID,94.4303,VALID,0,VALID,23.4134,VALID,321,VALID,0,
2008-03-29, 00:05:04,VALID,1005.26,VALID,0,VALID,94.3769,VALID,0,VALID,23.3939,VALID,321,VALID,0,
2008-03-29, 00:06:04,VALID,1005.24,VALID,0,VALID,94.3998,VALID,0,VALID,23.3939,VALID,321,VALID,0,
2008-03-29, 00:07:04,VALID,1005.23,VALID,0,VALID,94.56,VALID,0,VALID,23.3939,VALID,321,VALID,0,
2008-03-29, 00:08:04,VALID,1005.22,VALID,0,VALID,94.6668,VALID,0,VALID,23.3939,VALID,321,VALID,0,
2008-03-29, 00:09:04,VALID,1005.23,VALID,0,VALID,94.621,VALID,0,VALID,23.3727,VALID,321,VALID,0,
2008-03-29, 00:10:04,VALID,1005.21,VALID,0,VALID,94.6363,VALID,0,VALID,23.3744,VALID,321,VALID,0,
2008-03-29, 00:11:04,VALID,1005.22,VALID,0,VALID,94.5523,VALID,0,VALID,23.355,VALID,341,VALID,0.389062,
2008-03-29, 00:12:04,VALID,1005.21,VALID,0,VALID,94.3464,VALID,0,VALID,23.316,VALID,345,VALID,0.49375,
2008-03-29, 00:13:04,VALID,1005.22,VALID,0,VALID,94.2548,VALID,0,VALID,23.2382,VALID,5,VALID,0.625391,
2008-03-29, 00:14:04,VALID,1005.19,VALID,0,VALID,94.3006,VALID,0,VALID,23.1993,VALID,14,VALID,0.557813,
2008-03-29, 00:15:04,VALID,1005.17,VALID,0,VALID,94.3616,VALID,0,VALID,23.1391,VALID,14,VALID,0.533594,
2008-03-29, 00:16:04,VALID,1005.19,VALID,0,VALID,94.56,VALID,0,VALID,23.1214,VALID,13,VALID,0.566797,
2008-03-29, 00:17:04,VALID,1005.17,VALID,0,VALID,94.682,VALID,0,VALID,23.1214,VALID,13,VALID,0.408203,
2008-03-29, 00:18:04,VALID,1005.19,VALID,0,VALID,94.7202,VALID,0,VALID,23.0613,VALID,13,VALID,0.188672,
2008-03-29, 00:19:04,VALID,1005.19,VALID,0,VALID,94.8041,VALID,0,VALID,23.0825,VALID,13,VALID,0.139453,
2008-03-29, 00:20:04,VALID,1005.19,VALID,0,VALID,94.9338,VALID,0,VALID,23.0224,VALID,13,VALID,0.00546875,
2008-03-29, 00:21:04,VALID,1005.21,VALID,0,VALID,95.0787,VALID,0,VALID,23.0436,VALID,13,VALID,0.00546875,
2008-03-29, 00:22:04,VALID,1005.21,VALID,0,VALID,95.1093,VALID,0.100563,VALID,23.0418,VALID,12,VALID,0,
2008-03-29, 00:23:04,VALID,1005.17,VALID,0,VALID,95.1245,VALID,0,VALID,23.063,VALID,2,VALID,0.403516,
2008-03-29, 00:24:04,VALID,1005.14,VALID,0,VALID,95.1398,VALID,0,VALID,23.0613,VALID,2,VALID,0.402344,
2008-03-29, 00:25:04,VALID,1005.12,VALID,0,VALID,95.155,VALID,0,VALID,23.1019,VALID,2,VALID,0.176172,
2008-03-29, 00:26:04,VALID,1005.1,VALID,0,VALID,95.2237,VALID,0,VALID,23.1019,VALID,339,VALID,0.369922,
2008-03-29, 00:27:04,VALID,1005.09,VALID,0,VALID,95.1855,VALID,0,VALID,23.1603,VALID,298,VALID,0.237891,
2008-03-29, 00:28:04,VALID,1005.04,VALID,0,VALID,95.0864,VALID,0,VALID,23.1586,VALID,308,VALID,0.202344,
2008-03-29, 00:29:04,VALID,1005.04,VALID,0,VALID,95.0558,VALID,0,VALID,23.1993,VALID,312,VALID,0.320703,
2008-03-29, 00:30:04,VALID,1005.03,VALID,0,VALID,94.9872,VALID,0,VALID,23.24,VALID,295,VALID,0.46875,
2008-03-29, 00:31:04,VALID,1005.03,VALID,0,VALID,94.7888,VALID,0,VALID,23.2771,VALID,282,VALID,0.680078,
2008-03-29, 00:32:04,VALID,1004.97,VALID,0,VALID,94.4837,VALID,0,VALID,23.3532,VALID,286,VALID,1.11406,
2008-03-29, 00:33:04,VALID,1004.94,VALID,0,VALID,93.9954,VALID,0,VALID,23.4523,VALID,292,VALID,0.888672,
2008-03-29, 00:34:04,VALID,1004.91,VALID,0,VALID,93.5682,VALID,0,VALID,23.5284,VALID,297,VALID,0.954297,
2008-03-29, 00:35:04,VALID,1004.9,VALID,0,VALID,93.1944,VALID,0,VALID,23.6275,VALID,295,VALID,0.641016,
2008-03-29, 00:36:04,VALID,1004.88,VALID,0,VALID,92.7367,VALID,0,VALID,23.6859,VALID,295,VALID,0.848437,
2008-03-29, 00:37:04,VALID,1004.9,VALID,0,VALID,92.2484,VALID,0,VALID,23.7637,VALID,291,VALID,0.729297,
2008-03-29, 00:38:04,VALID,1004.91,VALID,0,VALID,92.0119,VALID,0,VALID,23.8221,VALID,305,VALID,0.574609,
2008-03-29, 00:39:04,VALID,1004.91,VALID,0,VALID,91.7907,VALID,0,VALID,23.8416,VALID,301,VALID,0.4125,
2008-03-29, 00:40:04,VALID,1004.92,VALID,0,VALID,91.6991,VALID,0.100563,VALID,23.8805,VALID,297,VALID,0.214844,
2008-03-29, 00:41:04,VALID,1004.93,VALID,0,VALID,91.5389,VALID,0,VALID,23.8805,VALID,297,VALID,0.119141,
2008-03-29, 00:42:04,VALID,1004.91,VALID,0,VALID,91.4398,VALID,0,VALID,23.8805,VALID,296,VALID,0.435156,
2008-03-29, 00:43:04,VALID,1004.89,VALID,0,VALID,91.4398,VALID,0,VALID,23.9,VALID,296,VALID,0.194922,
2008-03-29, 00:44:04,VALID,1004.9,VALID,0,VALID,91.4016,VALID,0,VALID,23.8805,VALID,296,VALID,0.378125,
2008-03-29, 00:45:04,VALID,1004.87,VALID,0,VALID,91.394,VALID,0,VALID,23.8805,VALID,296,VALID,0.151172,
2008-03-29, 00:46:04,VALID,1004.87,VALID,0,VALID,91.3101,VALID,0,VALID,23.8221,VALID,357,VALID,0.564062,
2008-03-29, 00:47:04,VALID,1004.87,VALID,0,VALID,91.5084,VALID,0,VALID,23.785,VALID,358,VALID,0.58125,
2008-03-29, 00:48:04,VALID,1004.84,VALID,0,VALID,91.661,VALID,0,VALID,23.7053,VALID,359,VALID,0.683984,
2008-03-29, 00:49:04,VALID,1004.85,VALID,0,VALID,91.9738,VALID,0,VALID,23.608,VALID,359,VALID,0.564844,
2008-03-29, 00:50:04,VALID,1004.86,VALID,0,VALID,92.2942,VALID,0,VALID,23.5496,VALID,359,VALID,0.382422,
2008-03-29, 00:51:04,VALID,1004.85,VALID,0,VALID,92.5002,VALID,0,VALID,23.4912,VALID,359,VALID,0.449609,
2008-03-29, 00:52:04,VALID,1004.83,VALID,0,VALID,92.7901,VALID,0,VALID,23.4523,VALID,359,VALID,0.369531,
2008-03-29, 00:53:04,VALID,1004.86,VALID,0,VALID,93.0876,VALID,0,VALID,23.3939,VALID,359,VALID,0.55,
2008-03-29, 00:54:04,VALID,1004.84,VALID,0,VALID,93.3546,VALID,0.100563,VALID,23.355,VALID,359,VALID,0.215234,
2008-03-29, 00:55:04,VALID,1004.85,VALID,0,VALID,93.469,VALID,0,VALID,23.3355,VALID,358,VALID,0.166016,
2008-03-29, 00:56:04,VALID,1004.81,VALID,0,VALID,93.5224,VALID,0,VALID,23.316,VALID,358,VALID,0,
2008-03-29, 00:57:04,VALID,1004.79,VALID,0,VALID,93.5987,VALID,0,VALID,23.316,VALID,358,VALID,0,
2008-03-29, 00:58:04,VALID,1004.77,VALID,0,VALID,93.6369,VALID,0,VALID,23.2966,VALID,358,VALID,0,
2008-03-29, 00:59:04,VALID,1004.74,VALID,0,VALID,93.7971,VALID,0,VALID,23.2966,VALID,358,VALID,0,
2008-03-29, 01:00:04,VALID,1004.76,VALID,0,VALID,93.82,VALID,0,VALID,23.316,VALID,358,VALID,0,
2008-03-29, 01:01:04,VALID,1004.78,VALID,0,VALID,93.9039,VALID,0,VALID,23.2966,VALID,358,VALID,0.107422,
2008-03-29, 01:02:04,VALID,1004.75,VALID,0,VALID,94.0565,VALID,0,VALID,23.316,VALID,358,VALID,0.197266,
2008-03-29, 01:03:04,VALID,1004.75,VALID,0,VALID,94.1862,VALID,0,VALID,23.316,VALID,358,VALID,0.121484,
2008-03-29, 01:04:04,VALID,1004.77,VALID,0,VALID,94.1633,VALID,0,VALID,23.2966,VALID,358,VALID,0.255469,
2008-03-29, 01:05:04,VALID,1004.74,VALID,0,VALID,94.1785,VALID,0,VALID,23.2966,VALID,358,VALID,0.350781,
2008-03-29, 01:06:04,VALID,1004.71,VALID,0,VALID,94.2777,VALID,0,VALID,23.2966,VALID,358,VALID,0.337109,
2008-03-29, 01:07:04,VALID,1004.72,VALID,0,VALID,94.3769,VALID,0,VALID,23.2966,VALID,358,VALID,0.404297,
2008-03-29, 01:08:04,VALID,1004.69,VALID,0,VALID,94.4684,VALID,0,VALID,23.2789,VALID,360,VALID,0.514844,
2008-03-29, 01:09:04,VALID,1004.7,VALID,0,VALID,94.4989,VALID,0,VALID,23.2771,VALID,360,VALID,0.510938,
2008-03-29, 01:10:04,VALID,1004.66,VALID,0,VALID,94.5218,VALID,0,VALID,23.2789,VALID,2,VALID,0.672266,
2008-03-29, 01:11:04,VALID,1004.65,VALID,0,VALID,94.5981,VALID,0,VALID,23.2594,VALID,7,VALID,0.659375,
2008-03-29, 01:12:04,VALID,1004.65,VALID,0,VALID,94.682,VALID,0,VALID,23.2205,VALID,7,VALID,0.433984,
2008-03-29, 01:13:04,VALID,1004.62,VALID,0,VALID,94.7736,VALID,0,VALID,23.2205,VALID,7,VALID,0.594141,
2008-03-29, 01:14:04,VALID,1004.61,VALID,0,VALID,94.8422,VALID,0,VALID,23.1993,VALID,7,VALID,0.634766,
2008-03-29, 01:15:04,VALID,1004.58,VALID,0,VALID,94.9033,VALID,0,VALID,23.1993,VALID,7,VALID,0.528516,
2008-03-29, 01:16:04,VALID,1004.56,VALID,0,VALID,94.949,VALID,0,VALID,23.1993,VALID,7,VALID,0.456641,
2008-03-29, 01:17:04,VALID,1004.61,VALID,0,VALID,95.0101,VALID,0,VALID,23.1798,VALID,7,VALID,0.426562,
2008-03-29, 01:18:04,VALID,1004.61,VALID,0,VALID,95.033,VALID,0,VALID,23.1798,VALID,7,VALID,0.178906,
2008-03-29, 01:19:04,VALID,1004.61,VALID,0,VALID,95.0177,VALID,0,VALID,23.1798,VALID,1,VALID,0.321094,
2008-03-29, 01:20:04,VALID,1004.64,VALID,0,VALID,95.1016,VALID,0,VALID,23.2205,VALID,1,VALID,0.349219,
2008-03-29, 01:21:04,VALID,1004.63,VALID,0,VALID,95.1169,VALID,0,VALID,23.2382,VALID,1,VALID,0,
2008-03-29, 01:22:04,VALID,1004.66,VALID,0,VALID,95.1093,VALID,0,VALID,23.2382,VALID,353,VALID,0.420312,
2008-03-29, 01:23:04,VALID,1004.66,VALID,0,VALID,95.1474,VALID,0,VALID,23.2771,VALID,351,VALID,0.433984,
2008-03-29, 01:24:04,VALID,1004.66,VALID,0,VALID,95.1627,VALID,0,VALID,23.3178,VALID,358,VALID,0.584766,
2008-03-29, 01:25:04,VALID,1004.65,VALID,0,VALID,95.1932,VALID,0,VALID,23.3373,VALID,3,VALID,0.458203,
2008-03-29, 01:26:04,VALID,1004.64,VALID,0,VALID,95.0635,VALID,0.100563,VALID,23.316,VALID,11,VALID,0.590625,
2008-03-29, 01:27:04,VALID,1004.63,VALID,0,VALID,95.0101,VALID,0,VALID,23.2966,VALID,11,VALID,0.588672,
2008-03-29, 01:28:04,VALID,1004.62,VALID,0,VALID,95.0253,VALID,0,VALID,23.3178,VALID,11,VALID,0.341406,
2008-03-29, 01:29:04,VALID,1004.58,VALID,0,VALID,95.0635,VALID,0,VALID,23.3178,VALID,11,VALID,0.349609,
2008-03-29, 01:30:04,VALID,1004.55,VALID,0,VALID,95.0711,VALID,0,VALID,23.2771,VALID,11,VALID,0.435937,
2008-03-29, 01:31:04,VALID,1004.51,VALID,0,VALID,94.9719,VALID,0,VALID,23.2577,VALID,11,VALID,0.469531,
2008-03-29, 01:32:04,VALID,1004.47,VALID,0,VALID,94.9948,VALID,0,VALID,23.2789,VALID,11,VALID,0.4,
2008-03-29, 01:33:05,VALID,1004.44,VALID,0,VALID,94.8728,VALID,0,VALID,23.2577,VALID,11,VALID,0.326562,
2008-03-29, 01:34:05,VALID,1004.4,VALID,0,VALID,94.8575,VALID,0,VALID,23.2577,VALID,358,VALID,0.347266,
2008-03-29, 01:35:05,VALID,1004.39,VALID,0,VALID,94.888,VALID,0,VALID,23.2577,VALID,358,VALID,0.474609,
2008-03-29, 01:36:05,VALID,1004.38,VALID,0,VALID,94.9033,VALID,0,VALID,23.2771,VALID,358,VALID,0.392969,
2008-03-29, 01:37:05,VALID,1004.4,VALID,0,VALID,94.9567,VALID,0,VALID,23.2966,VALID,358,VALID,0.404297,
2008-03-29, 01:38:05,VALID,1004.41,VALID,0,VALID,94.9872,VALID,0,VALID,23.2966,VALID,358,VALID,0.367969,
2008-03-29, 01:39:05,VALID,1004.38,VALID,0,VALID,95.0177,VALID,0.100563,VALID,23.2966,VALID,358,VALID,0.417578,
2008-03-29, 01:40:05,VALID,1004.38,VALID,0,VALID,95.0558,VALID,0,VALID,23.2966,VALID,358,VALID,0.339063,
2008-03-29, 01:41:05,VALID,1004.32,VALID,0,VALID,95.1245,VALID,0,VALID,23.2966,VALID,358,VALID,0.303125,
2008-03-29, 01:42:05,VALID,1004.35,VALID,0,VALID,95.155,VALID,0.100563,VALID,23.2966,VALID,358,VALID,0.00234375,
2008-03-29, 01:43:05,VALID,1004.32,VALID,0,VALID,95.1855,VALID,0,VALID,23.2559,VALID,358,VALID,0.320703,
2008-03-29, 01:44:05,VALID,1004.28,VALID,0,VALID,95.2389,VALID,0,VALID,23.2771,VALID,358,VALID,0.5125,
2008-03-29, 01:45:05,VALID,1004.28,VALID,0,VALID,95.2771,VALID,0.100563,VALID,23.2577,VALID,358,VALID,0.393359,
2008-03-29, 01:46:05,VALID,1004.25,VALID,0,VALID,95.3305,VALID,0,VALID,23.2771,VALID,359,VALID,0.411719,
2008-03-29, 01:47:05,VALID,1004.23,VALID,0,VALID,95.3381,VALID,0.100563,VALID,23.2577,VALID,358,VALID,0.399219,
2008-03-29, 01:48:05,VALID,1004.22,VALID,0,VALID,95.3152,VALID,0.100563,VALID,23.2364,VALID,358,VALID,0.327734,
2008-03-29, 01:49:05,VALID,1004.19,VALID,0,VALID,95.1932,VALID,0.100563,VALID,23.2187,VALID,358,VALID,0.309375,
2008-03-29, 01:50:05,VALID,1004.21,VALID,0,VALID,95.1779,VALID,0,VALID,23.1993,VALID,358,VALID,0.421875,
2008-03-29, 01:51:05,VALID,1004.17,VALID,0,VALID,95.2466,VALID,0.100563,VALID,23.2187,VALID,358,VALID,0.380469,
2008-03-29, 01:52:05,VALID,1004.16,VALID,0,VALID,95.2847,VALID,0.100563,VALID,23.2187,VALID,358,VALID,0,
2008-03-29, 01:53:05,VALID,1004.18,VALID,0,VALID,95.2923,VALID,0.100563,VALID,23.2187,VALID,358,VALID,0,
2008-03-29, 01:54:05,VALID,1004.13,VALID,0,VALID,95.3305,VALID,0,VALID,23.24,VALID,358,VALID,0.356641,
2008-03-29, 01:55:05,VALID,1004.09,VALID,0,VALID,95.3534,VALID,0,VALID,23.2382,VALID,358,VALID,0.339844,
2008-03-29, 01:56:05,VALID,1004.1,VALID,0,VALID,95.361,VALID,0,VALID,23.2382,VALID,358,VALID,0.341016,
2008-03-29, 01:57:05,VALID,1004.08,VALID,0,VALID,95.3457,VALID,0.100563,VALID,23.2577,VALID,358,VALID,0.262109,
2008-03-29, 01:58:05,VALID,1004.06,VALID,0,VALID,95.3152,VALID,0.100563,VALID,23.2382,VALID,358,VALID,0.366406,
2008-03-29, 01:59:05,VALID,1004.03,VALID,0,VALID,95.3457,VALID,0,VALID,23.217,VALID,358,VALID,0.263281,
2008-03-29, 02:00:05,VALID,1004.08,VALID,0,VALID,95.3076,VALID,0,VALID,23.1975,VALID,358,VALID,0,
2008-03-29, 02:01:05,VALID,1004.04,VALID,0,VALID,95.361,VALID,0.100563,VALID,23.2187,VALID,358,VALID,0,
2008-03-29, 02:02:05,VALID,1004.01,VALID,0,VALID,95.2695,VALID,0,VALID,23.2382,VALID,358,VALID,0,
2008-03-29, 02:03:05,VALID,1004,VALID,0,VALID,95.2618,VALID,0.100563,VALID,23.2187,VALID,358,VALID,0,
2008-03-29, 02:04:05,VALID,1004,VALID,0,VALID,95.1703,VALID,0,VALID,23.2187,VALID,358,VALID,0,
2008-03-29, 02:05:05,VALID,1003.98,VALID,0,VALID,95.1093,VALID,0,VALID,23.1798,VALID,358,VALID,0.209766,
2008-03-29, 02:06:05,VALID,1003.98,VALID,0,VALID,95.1245,VALID,0,VALID,23.1603,VALID,359,VALID,0.514063,
2008-03-29, 02:07:05,VALID,1003.98,VALID,0,VALID,95.0864,VALID,0.100563,VALID,23.1391,VALID,14,VALID,0.445703,
2008-03-29, 02:08:05,VALID,1003.95,VALID,0,VALID,95.0711,VALID,0.100563,VALID,23.1586,VALID,14,VALID,0.314453,
2008-03-29, 02:09:05,VALID,1003.98,VALID,0,VALID,94.9948,VALID,0,VALID,23.1603,VALID,14,VALID,0.316016,
2008-03-29, 02:10:05,VALID,1003.96,VALID,0,VALID,94.9567,VALID,0.100563,VALID,23.1197,VALID,14,VALID,0.249219,
2008-03-29, 02:11:05,VALID,1003.95,VALID,0,VALID,94.8346,VALID,0,VALID,23.1214,VALID,14,VALID,0.441406,
2008-03-29, 02:12:05,VALID,1003.95,VALID,0,VALID,94.9338,VALID,0,VALID,23.1214,VALID,14,VALID,0.220703,
2008-03-29, 02:13:05,VALID,1004,VALID,0,VALID,94.9262,VALID,0,VALID,23.1019,VALID,14,VALID,0,
2008-03-29, 02:14:05,VALID,1004,VALID,0,VALID,94.888,VALID,0,VALID,23.1019,VALID,14,VALID,0,
2008-03-29, 02:15:05,VALID,1004.05,VALID,0,VALID,94.8956,VALID,0,VALID,23.0825,VALID,13,VALID,0,
2008-03-29, 02:16:05,VALID,1004.03,VALID,0,VALID,94.9338,VALID,0,VALID,23.063,VALID,13,VALID,0,
2008-03-29, 02:17:05,VALID,1004.03,VALID,0,VALID,94.9719,VALID,0,VALID,23.063,VALID,13,VALID,0,
2008-03-29, 02:18:05,VALID,1004.05,VALID,0,VALID,94.949,VALID,0.100563,VALID,23.0224,VALID,13,VALID,0,
2008-03-29, 02:19:05,VALID,1004.04,VALID,0,VALID,95.0101,VALID,0.100563,VALID,23.0436,VALID,13,VALID,0,
2008-03-29, 02:20:05,VALID,1004,VALID,0,VALID,95.0558,VALID,0.100563,VALID,23.0241,VALID,13,VALID,0,
2008-03-29, 02:21:05,VALID,1004.01,VALID,0,VALID,95.0635,VALID,0,VALID,23.0241,VALID,13,VALID,0,
2008-03-29, 02:22:05,VALID,1004.01,VALID,0,VALID,95.1474,VALID,0,VALID,23.0241,VALID,13,VALID,0,
2008-03-29, 02:23:05,VALID,1003.98,VALID,0,VALID,95.1779,VALID,0,VALID,23.0436,VALID,13,VALID,0,
2008-03-29, 02:24:05,VALID,1003.98,VALID,0,VALID,95.2237,VALID,0.100563,VALID,23.0029,VALID,13,VALID,0,
2008-03-29, 02:25:05,VALID,1003.98,VALID,0,VALID,95.2466,VALID,0,VALID,23.0029,VALID,13,VALID,0,
2008-03-29, 02:26:05,VALID,1004.02,VALID,0,VALID,95.1627,VALID,0.100563,VALID,23.0436,VALID,13,VALID,0,
2008-03-29, 02:27:05,VALID,1004.01,VALID,0,VALID,95.1703,VALID,0,VALID,23.0436,VALID,13,VALID,0,
2008-03-29, 02:28:05,VALID,1004.02,VALID,0,VALID,95.1398,VALID,0,VALID,23.0436,VALID,13,VALID,0,
2008-03-29, 02:29:05,VALID,1004.02,VALID,0,VALID,95.1474,VALID,0,VALID,23.0241,VALID,13,VALID,0,
2008-03-29, 02:30:05,VALID,1004.03,VALID,0,VALID,95.1779,VALID,0,VALID,23.0436,VALID,13,VALID,0,
2008-03-29, 02:31:05,VALID,1004.06,VALID,0,VALID,95.2161,VALID,0,VALID,23.0418,VALID,13,VALID,0,
2008-03-29, 02:32:05,VALID,1004.06,VALID,0,VALID,95.2313,VALID,0.100563,VALID,23.0613,VALID,13,VALID,0,
2008-03-29, 02:33:05,VALID,1004.08,VALID,0,VALID,95.2618,VALID,0.100563,VALID,23.0825,VALID,13,VALID,0,
2008-03-29, 02:34:05,VALID,1004.05,VALID,0,VALID,95.3686,VALID,0.100563,VALID,23.1019,VALID,13,VALID,0,
2008-03-29, 02:35:05,VALID,1004.03,VALID,0,VALID,95.3076,VALID,0,VALID,23.0807,VALID,13,VALID,0,
2008-03-29, 02:36:05,VALID,1004.03,VALID,0,VALID,95.2847,VALID,0,VALID,23.1232,VALID,13,VALID,0,
2008-03-29, 02:37:05,VALID,1004.01,VALID,0,VALID,95.3,VALID,0,VALID,23.1214,VALID,13,VALID,0,
2008-03-29, 02:38:05,VALID,1004.03,VALID,0,VALID,95.3076,VALID,0,VALID,23.1214,VALID,13,VALID,0,
2008-03-29, 02:39:05,VALID,1004.06,VALID,0,VALID,95.422,VALID,0,VALID,23.1197,VALID,13,VALID,0,
2008-03-29, 02:40:05,VALID,1004.1,VALID,0,VALID,95.4449,VALID,0,VALID,23.1409,VALID,13,VALID,0,
2008-03-29, 02:41:05,VALID,1004.11,VALID,0,VALID,95.4526,VALID,0.100563,VALID,23.1603,VALID,13,VALID,0,
2008-03-29, 02:42:05,VALID,1004.08,VALID,0,VALID,95.4449,VALID,0,VALID,23.1603,VALID,13,VALID,0,
2008-03-29, 02:43:05,VALID,1004.08,VALID,0,VALID,95.422,VALID,0,VALID,23.1798,VALID,13,VALID,0,
2008-03-29, 02:44:05,VALID,1004.07,VALID,0,VALID,95.4754,VALID,0,VALID,23.1993,VALID,13,VALID,0,
2008-03-29, 02:45:05,VALID,1004.04,VALID,0,VALID,95.4983,VALID,0,VALID,23.1993,VALID,13,VALID,0,
2008-03-29, 02:46:05,VALID,1004.05,VALID,0,VALID,95.5517,VALID,0,VALID,23.2187,VALID,13,VALID,0,
2008-03-29, 02:47:05,VALID,1004.03,VALID,0,VALID,95.5746,VALID,0.100563,VALID,23.2382,VALID,13,VALID,0,
2008-03-29, 02:48:05,VALID,1004.02,VALID,0,VALID,95.5746,VALID,0,VALID,23.2382,VALID,13,VALID,0,
2008-03-29, 02:49:05,VALID,1004,VALID,0,VALID,95.6967,VALID,0,VALID,23.2577,VALID,13,VALID,0,
2008-03-29, 02:50:05,VALID,1003.98,VALID,0,VALID,95.7959,VALID,0,VALID,23.2966,VALID,13,VALID,0,
2008-03-29, 02:51:05,VALID,1003.99,VALID,0,VALID,95.834,VALID,0,VALID,23.3355,VALID,12,VALID,0,
2008-03-29, 02:52:05,VALID,1004,VALID,0,VALID,95.7043,VALID,0,VALID,23.3762,VALID,13,VALID,0,
2008-03-29, 02:53:05,VALID,1004,VALID,0,VALID,95.6051,VALID,0,VALID,23.355,VALID,13,VALID,0,
2008-03-29, 02:54:05,VALID,1004.02,VALID,0,VALID,95.6204,VALID,0,VALID,23.3744,VALID,13,VALID,0,
2008-03-29, 02:55:05,VALID,1004.02,VALID,0,VALID,95.6356,VALID,0,VALID,23.3939,VALID,12,VALID,0.565625,
2008-03-29, 02:56:05,VALID,1004.02,VALID,0,VALID,95.6509,VALID,0,VALID,23.4151,VALID,13,VALID,0.647656,
2008-03-29, 02:57:05,VALID,1003.98,VALID,0,VALID,95.6051,VALID,0,VALID,23.3939,VALID,13,VALID,0.614453,
2008-03-29, 02:58:05,VALID,1003.96,VALID,0,VALID,95.5975,VALID,0,VALID,23.4134,VALID,13,VALID,0.567969,
2008-03-29, 02:59:05,VALID,1003.92,VALID,0,VALID,95.5899,VALID,0,VALID,23.4134,VALID,13,VALID,0.355859,
2008-03-29, 03:00:05,VALID,1003.89,VALID,0,VALID,95.5975,VALID,0,VALID,23.4134,VALID,13,VALID,0.362109,
2008-03-29, 03:01:05,VALID,1003.88,VALID,0,VALID,95.6128,VALID,0.100563,VALID,23.4134,VALID,13,VALID,0.407813,
2008-03-29, 03:02:05,VALID,1003.87,VALID,0,VALID,95.6585,VALID,0.100563,VALID,23.4134,VALID,10,VALID,0.484766,
2008-03-29, 03:03:05,VALID,1003.85,VALID,0,VALID,95.6585,VALID,0.100563,VALID,23.4328,VALID,8,VALID,0.397266,
2008-03-29, 03:04:05,VALID,1003.85,VALID,0,VALID,95.7196,VALID,0,VALID,23.4541,VALID,8,VALID,0.437891,
2008-03-29, 03:05:05,VALID,1003.82,VALID,0,VALID,95.7043,VALID,0,VALID,23.4523,VALID,8,VALID,0.469141,
2008-03-29, 03:06:05,VALID,1003.82,VALID,0,VALID,95.6814,VALID,0.100563,VALID,23.4505,VALID,8,VALID,0.548437,
2008-03-29, 03:07:05,VALID,1003.81,VALID,0,VALID,95.6738,VALID,0,VALID,23.4523,VALID,8,VALID,0.344531,
2008-03-29, 03:08:05,VALID,1003.77,VALID,0,VALID,95.6204,VALID,0,VALID,23.4523,VALID,8,VALID,0.477344,
2008-03-29, 03:09:05,VALID,1003.77,VALID,0,VALID,95.6204,VALID,0,VALID,23.4523,VALID,8,VALID,0.362109,
2008-03-29, 03:10:05,VALID,1003.75,VALID,0,VALID,95.6356,VALID,0,VALID,23.4328,VALID,8,VALID,0.444141,
2008-03-29, 03:11:05,VALID,1003.75,VALID,0,VALID,95.6356,VALID,0,VALID,23.4328,VALID,8,VALID,0.444141,
2008-03-29, 03:12:05,VALID,1003.73,VALID,0,VALID,95.6738,VALID,0,VALID,23.4523,VALID,8,VALID,0.433594,
2008-03-29, 03:13:05,VALID,1003.75,VALID,0,VALID,95.7424,VALID,0,VALID,23.4328,VALID,8,VALID,0.514844,
2008-03-29, 03:14:05,VALID,1003.74,VALID,0,VALID,95.7577,VALID,0,VALID,23.4523,VALID,8,VALID,0.498047,
2008-03-29, 03:15:05,VALID,1003.69,VALID,0,VALID,95.7653,VALID,0,VALID,23.4523,VALID,8,VALID,0.516406,
2008-03-29, 03:16:05,VALID,1003.67,VALID,0,VALID,95.8035,VALID,0.100563,VALID,23.4523,VALID,6,VALID,0.61875,
2008-03-29, 03:17:05,VALID,1003.67,VALID,0,VALID,95.8111,VALID,0.100563,VALID,23.4718,VALID,6,VALID,0.647266,
2008-03-29, 03:18:05,VALID,1003.64,VALID,0,VALID,95.7959,VALID,0.100563,VALID,23.4718,VALID,6,VALID,0.405859,
2008-03-29, 03:19:05,VALID,1003.6,VALID,0,VALID,95.7653,VALID,0,VALID,23.4523,VALID,6,VALID,0.380859,
2008-03-29, 03:20:05,VALID,1003.61,VALID,0,VALID,95.7882,VALID,0,VALID,23.4735,VALID,2,VALID,0.594922,
2008-03-29, 03:21:05,VALID,1003.6,VALID,0,VALID,95.7882,VALID,0.100563,VALID,23.4718,VALID,360,VALID,0.530078,
2008-03-29, 03:22:05,VALID,1003.57,VALID,0,VALID,95.7959,VALID,0.100563,VALID,23.4523,VALID,1,VALID,0.444531,
2008-03-29, 03:23:05,VALID,1003.56,VALID,0,VALID,95.8035,VALID,0,VALID,23.4718,VALID,1,VALID,0.373828,
2008-03-29, 03:24:05,VALID,1003.53,VALID,0,VALID,95.7882,VALID,0,VALID,23.4523,VALID,1,VALID,0.432422,
2008-03-29, 03:25:05,VALID,1003.54,VALID,0,VALID,95.7959,VALID,0,VALID,23.4523,VALID,360,VALID,0.348828,
2008-03-29, 03:26:05,VALID,1003.51,VALID,0,VALID,95.7806,VALID,0.100563,VALID,23.4523,VALID,360,VALID,0.281641,
2008-03-29, 03:27:05,VALID,1003.48,VALID,0,VALID,95.7882,VALID,0,VALID,23.4718,VALID,360,VALID,0.394922,
2008-03-29, 03:28:05,VALID,1003.47,VALID,0,VALID,95.8035,VALID,0.100563,VALID,23.4505,VALID,358,VALID,0.557813,
2008-03-29, 03:29:05,VALID,1003.46,VALID,0,VALID,95.7959,VALID,0,VALID,23.4718,VALID,356,VALID,0.573828,
2008-03-29, 03:30:05,VALID,1003.49,VALID,0,VALID,95.7882,VALID,0,VALID,23.4912,VALID,357,VALID,0.541406,
2008-03-29, 03:31:05,VALID,1003.49,VALID,0,VALID,95.7882,VALID,0.100563,VALID,23.4912,VALID,7,VALID,0.719141,
2008-03-29, 03:32:05,VALID,1003.54,VALID,0,VALID,95.7806,VALID,0.100563,VALID,23.5107,VALID,10,VALID,0.501953,
2008-03-29, 03:33:05,VALID,1003.52,VALID,0,VALID,95.8035,VALID,0.100563,VALID,23.5107,VALID,15,VALID,0.607813,
2008-03-29, 03:34:05,VALID,1003.53,VALID,0,VALID,95.895,VALID,0.100563,VALID,23.5107,VALID,15,VALID,0.432422,
2008-03-29, 03:35:05,VALID,1003.55,VALID,0,VALID,95.9408,VALID,0,VALID,23.5302,VALID,15,VALID,0.460156,
2008-03-29, 03:36:05,VALID,1003.56,VALID,0,VALID,95.9179,VALID,0,VALID,23.5089,VALID,15,VALID,0.439453,
2008-03-29, 03:37:05,VALID,1003.57,VALID,0,VALID,95.9484,VALID,0,VALID,23.5496,VALID,15,VALID,0.369531,
2008-03-29, 03:38:05,VALID,1003.56,VALID,0,VALID,95.9561,VALID,0,VALID,23.5284,VALID,15,VALID,0.339063,
2008-03-29, 03:39:05,VALID,1003.58,VALID,0,VALID,95.9942,VALID,0,VALID,23.5885,VALID,15,VALID,0.172656,
2008-03-29, 03:40:05,VALID,1003.56,VALID,0,VALID,96.04,VALID,0,VALID,23.6293,VALID,16,VALID,0.00195313,
2008-03-29, 03:41:05,VALID,1003.57,VALID,0,VALID,96.0934,VALID,0,VALID,23.6257,VALID,62,VALID,0.373828,
2008-03-29, 03:42:05,VALID,1003.54,VALID,0,VALID,96.1697,VALID,0,VALID,23.7053,VALID,62,VALID,0.343359,
2008-03-29, 03:43:05,VALID,1003.55,VALID,0,VALID,96.2307,VALID,0,VALID,23.7443,VALID,72,VALID,0.428516,
2008-03-29, 03:44:05,VALID,1003.52,VALID,0,VALID,96.2307,VALID,0,VALID,23.8027,VALID,73,VALID,0.267578,
2008-03-29, 03:45:05,VALID,1003.53,VALID,0,VALID,96.2154,VALID,0,VALID,23.8221,VALID,73,VALID,0.214453,
2008-03-29, 03:46:05,VALID,1003.5,VALID,0,VALID,96.1849,VALID,0,VALID,23.8221,VALID,73,VALID,0.228906,
2008-03-29, 03:47:05,VALID,1003.5,VALID,0,VALID,96.1926,VALID,0,VALID,23.8416,VALID,72,VALID,0.28125,